Flag for Germany Weather past 2 weeks in Detmold, North Rhine-Westphalia, Germany

Now
52 °F

Overcast.


Feels Like: 51 °F
Forecast: 40 / 56 °F
Wind: 6 mph from Northwest

Location: Bad Lippspringe

Current Time: May 26, 2015 at 12:09:27 PM

Latest Report: May 26, 2015 at 12:00 PM


Visibility: 25 mi

Pressure: 30.10 "Hg

Humidity: 59%

Dew point: 38 °F

Location of DetmoldLocation

Historic Weather in Detmold — Graph

°F

Detmold temperature yesterday

Maximum temperature yesterday: 57 °F (at 6:00 PM)
Minimum temperature yesterday: 41 °F (at 3:00 AM)
Average temperature yesterday: 50 °F

Past Weeks' High & Low Weather Summary

 TemperatureHumidityPressure
High78 °F (May 12, 1:00 PM)98% (May 17, 5:00 AM)30.35 "Hg (May 17, 5:00 AM)
Low35 °F (May 17, 5:00 AM)37% (May 19, 4:00 PM)29.62 "Hg (May 18, 9:00 PM)
Average54 °F69%30.05 "Hg
* Reported May 11 11:00 AM — May 26 11:00 AM, Detmold, Weather by CustomWeather, © 2015

Note: Actual official high and low records may vary slightly from our data, if they occured in-between our weather recording intervals... More about our weather records

Advertising

Detmold weather history for previous 24 hours

 ConditionsComfort  
Time TempWeatherWind HumidityBarometerVisibility
11:00 AM
Tue, May 26
54 °FOvercast.5 mph58%30.09 "Hg22 mi
10:00 AM51 °FOvercast.6 mph63%30.09 "Hg17 mi
9:00 AM51 °FPartly sunny.3 mph74%30.08 "Hg16 mi
8:00 AM48 °FOvercast.3 mph83%30.07 "Hg19 mi
7:00 AM47 °FOvercast.2 mph86%30.05 "Hg18 mi
5:00 AM47 °FOvercast.2 mph85%30.03 "Hg22 mi
4:00 AM48 °FOvercast.1 mph83%30.02 "Hg22 mi
3:00 AM49 °FOvercast.2 mph77%30.01 "Hg25 mi
2:00 AM49 °FOvercast.1 mph89%30.00 "Hg22 mi
1:00 AM49 °FOvercast.1 mph93%30.00 "Hg22 mi
12:00 AM49 °FOvercast.1 mph94%29.99 "Hg19 mi
11:00 PM
Mon, May 25
49 °FOvercast.1 mph88%29.99 "Hg25 mi
10:00 PM51 °FOvercast.1 mph85%29.98 "Hg25 mi
9:00 PM55 °FOvercast.2 mph61%29.96 "Hg31 mi
8:00 PM57 °FOvercast.3 mph58%29.95 "Hg28 mi
7:00 PM57 °FOvercast.2 mph62%29.94 "Hg19 mi
6:00 PM57 °FPartly sunny.3 mph77%29.94 "Hg12 mi
5:00 PM56 °FOvercast.2 mph80%29.95 "Hg9 mi
4:00 PM53 °FOvercast.2 mph85%29.96 "Hg8 mi
3:00 PM52 °FLow clouds.2 mph91%29.97 "Hg4 mi
2:00 PM52 °FDrizzle. Low clouds.2 mph96%29.97 "Hg2 mi
1:00 PM51 °FDrizzle. Low clouds.3 mph94%29.98 "Hg2 mi
12:00 PM53 °FOvercast.2 mph87%29.98 "Hg5 mi
Weather by CustomWeather, © 2015

See weather overviewHow to use our weather pages